Weather History for KRKS - October, 2012

Change the Weather History Date:

Monday, October 22, 2012

  Actual Average Record
Temperature  
Mean Temperature 52 °F 42 °F  
Max Temperature 63 °F 54 °F 77 °F (2003)
Min Temperature 40 °F 31 °F 17 °F (1984)
Degree Days  
Heating Degree Days 13 23  
Month to date heating degree days 370 416  
Since 1 July heating degree days 499 744  
Cooling Degree Days 0 0  
Month to date cooling degree days 0 0  
Year to date cooling degree days 541 286  
Moisture  
Dew Point 35 °F    
Average Humidity 58    
Maximum Humidity 85    
Minimum Humidity 30    
Precipitation  
Precipitation T in 0.02 in 0.58 in (2004)
Month to date precipitation 0.01 0.63  
Year to date precipitation 2.70 7.33  
Snow  
Snow 0.00 in - - ()
Snow Depth 0.00 in    
Sea Level Pressure  
Sea Level Pressure 29.63 in    
Wind  
Wind Speed 18 mph (SSW)    
Max Wind Speed 36 mph    
Max Gust Speed 45 mph    
Visibility 10 miles    
Events Thunderstorm    
T = Trace of Precipitation, MM = Missing Value Source: NWS Daily Summary

Daily Weather History Graph

Daily Weather History Graph

Search for Another Location

Airport or City:

Trip Planner

Search our weather history database for the weather conditions in past years. The results will help you decide how hot, cold, wet, or windy it might be!

Date:

Astronomy

Oct. 22, 2012 Rise Set
Actual Time 7:36 AM MDT 6:23 PM MDT
Civil Twilight 7:08 AM MDT 6:51 PM MDT
Nautical Twilight 6:36 AM MDT 7:24 PM MDT
Astronomical Twilight 6:04 AM MDT 7:56 PM MDT
Moon 2:38 PM MDT (10/22) 12:22 AM MDT (10/22)
Length of Visible Light 11h 43m
Length of Day
10h 46m
First Quarter, 57% of the Moon is Illuminated
Oct 22
First Quarter
Oct 29
Full
Nov 6
Last Quarter
Nov 13
New
Nov 20
First Quarter

Hourly Weather History & Observations

Time (MDT) Temp. Windchill Dew Point Humidity Pressure Visibility Wind Dir Wind Speed Gust Speed Precip Events Conditions
12:54 AM 42.1 °F 38.4 °F 37.0 °F 82% 29.74 in 10.0 mi NE 5.8 mph - N/A   Partly Cloudy
1:54 AM 44.1 °F 40.8 °F 37.0 °F 76% 29.71 in 10.0 mi East 5.8 mph - N/A   Scattered Clouds
2:54 AM 44.1 °F 42.5 °F 37.0 °F 76% 29.69 in 10.0 mi ENE 3.5 mph - N/A   Partly Cloudy
3:54 AM 46.0 °F - 37.9 °F 73% 29.68 in 10.0 mi Calm Calm - N/A   Scattered Clouds
4:54 AM 42.1 °F - 36.0 °F 79% 29.70 in 10.0 mi Calm Calm - N/A   Partly Cloudy
5:54 AM 45.0 °F - 37.9 °F 76% 29.69 in 10.0 mi Calm Calm - N/A   Partly Cloudy
6:54 AM 41.0 °F 39.0 °F 36.0 °F 82% 29.72 in 10.0 mi NW 3.5 mph - N/A   Overcast
7:54 AM 39.9 °F - 36.0 °F 86% 29.72 in 10.0 mi Calm Calm - N/A   Mostly Cloudy
8:54 AM 46.0 °F 41.4 °F 37.0 °F 71% 29.70 in 10.0 mi SSW 9.2 mph - N/A   Clear
9:54 AM 51.1 °F - 39.0 °F 63% 29.68 in 10.0 mi South 10.4 mph - N/A   Mostly Cloudy
10:54 AM 54.0 °F - 37.0 °F 53% 29.64 in 10.0 mi South 21.9 mph 33.4 mph N/A   Partly Cloudy
11:54 AM 55.0 °F - 36.0 °F 49% 29.62 in 10.0 mi SSW 26.5 mph 39.1 mph N/A   Partly Cloudy
12:54 PM 60.1 °F - 35.1 °F 39% 29.60 in 10.0 mi SSW 28.8 mph 39.1 mph N/A   Mostly Cloudy
1:54 PM 62.1 °F - 30.9 °F 31% 29.55 in 10.0 mi SSW 27.6 mph 39.1 mph N/A   Clear
2:54 PM 60.1 °F - 32.0 °F 35% 29.54 in 10.0 mi SSW 31.1 mph 41.4 mph N/A   Scattered Clouds
3:54 PM 61.0 °F - 33.1 °F 35% 29.52 in 10.0 mi SSW 33.4 mph 41.4 mph 0.00 in   Clear
4:16 PM 60.8 °F - 32.0 °F 34% 29.70 in 10.0 mi SW 34.5 mph 40.3 mph N/A Thunderstorm Mostly Cloudy
4:31 PM 60.8 °F - 32.0 °F 34% 29.71 in 10.0 mi SW 24.2 mph 42.6 mph N/A   Scattered Clouds
4:54 PM 60.1 °F - 32.0 °F 35% 29.53 in 10.0 mi SSW 33.4 mph 42.6 mph N/A   Clear
5:54 PM 54.0 °F - 34.0 °F 47% 29.55 in 10.0 mi SSW 28.8 mph 36.8 mph N/A   Clear
6:54 PM 54.0 °F - 34.0 °F 47% 29.59 in 10.0 mi SSW 25.3 mph 38.0 mph N/A   Mostly Cloudy
7:54 PM 53.1 °F - 34.0 °F 48% 29.59 in 10.0 mi SSW 35.7 mph 42.6 mph N/A   Partly Cloudy
8:54 PM 52.0 °F - 35.1 °F 53% 29.57 in 10.0 mi SSW 31.1 mph 36.8 mph N/A   Clear
9:54 PM 51.1 °F - 35.1 °F 54% 29.55 in 10.0 mi SSW 24.2 mph 33.4 mph N/A   Partly Cloudy
10:54 PM 50.0 °F - 35.1 °F 57% 29.55 in 10.0 mi SSW 20.7 mph - N/A   Clear
11:54 PM 50.0 °F - 34.0 °F 54% 29.54 in 10.0 mi SSW 27.6 mph 35.7 mph N/A   Clear